Wichita Jabara, KS

6:02 AM CDT on October 17, 2019 (GMT -0500)
Col Jabara

Weather History for KAAO - September, 2019

Change the Weather History Date:

Saturday, September 21, 2019

  Actual Average (KIAB) Record (KIAB)
Temperature  
Mean Temperature 78 °F -  
Max Temperature 86 °F 77 °F 98 °F (2005)
Min Temperature 70 °F 56 °F 44 °F (1999)
Cooling Degree Days 13    
Growing Degree Days 28 (Base 50)    
Moisture  
Dew Point 70 °F    
Average Humidity 84    
Maximum Humidity 93    
Minimum Humidity 61    
Precipitation  
Precipitation 0.02 in - - ()
Sea Level Pressure  
Sea Level Pressure 29.90 in    
Wind  
Wind Speed 12 mph ()    
Max Wind Speed 22 mph    
Max Gust Speed 37 mph    
Visibility 9.9 miles    
Events Rain , Thunderstorm    
Averages and records for this station are not official NWS values.
T = Trace of Precipitation, MM = Missing Value Source: Averaged Metar Reports

Daily Weather History Graph

Daily Weather History Graph

Search for Another Location

Airport or City:

Astronomy

Sep. 21, 2019 Rise Set
Actual Time 7:15 AM CDT 7:27 PM CDT
Civil Twilight 6:49 AM CDT 7:53 PM CDT
Nautical Twilight 6:18 AM CDT 8:24 PM CDT
Astronomical Twilight 5:47 AM CDT 8:55 PM CDT
Moon No Moon Rise 2:16 PM CDT (9/21)
Length of Visible Light 13h 04m
Length of Day
12h 12m
Waning Gibbous, 54% of the Moon is Illuminated
Sep 21
Waning Gibbous
Sep 21
Last Quarter
Sep 28
New
Oct 5
First Quarter
Oct 13
Full

Hourly Weather History & Observations

Time (CDT) Temp. Heat Index Dew Point Humidity Pressure Visibility Wind Dir Wind Speed Gust Speed Precip Events Conditions
12:54 AM 73.0 °F - 69.1 °F 87% 29.90 in 10.0 mi South 12.7 mph 24.2 mph N/A   Mostly Cloudy
1:35 AM 72.0 °F - 69.1 °F 91% 29.93 in 10.0 mi SSE 11.5 mph - N/A   Mostly Cloudy
1:54 AM 71.1 °F - 69.1 °F 93% 29.90 in 10.0 mi SSE 11.5 mph 20.7 mph N/A   Mostly Cloudy
2:39 AM 71.1 °F - 69.1 °F 93% 29.93 in 10.0 mi SSE 11.5 mph - N/A   Mostly Cloudy
2:51 AM 71.6 °F - 68.0 °F 88% 29.93 in 10.0 mi SSE 13.8 mph 19.6 mph N/A   Mostly Cloudy
2:54 AM 71.1 °F - 68.0 °F 90% 29.90 in 10.0 mi SSE 9.2 mph 19.6 mph N/A   Mostly Cloudy
3:24 AM 71.1 °F - 68.0 °F 90% 29.93 in 10.0 mi South 11.5 mph 20.7 mph N/A   Mostly Cloudy
3:54 AM 70.0 °F - 68.0 °F 93% 29.88 in 10.0 mi South 15.0 mph 24.2 mph N/A   Mostly Cloudy
4:47 AM 70.0 °F - 68.0 °F 93% 29.92 in 10.0 mi South 9.2 mph - N/A   Scattered Clouds
4:54 AM 70.0 °F - 68.0 °F 93% 29.89 in 10.0 mi South 9.2 mph - N/A   Scattered Clouds
6:24 AM 70.0 °F - 68.0 °F 93% 29.93 in 10.0 mi SSE 12.7 mph - N/A   Partly Cloudy
6:54 AM 70.0 °F - 68.0 °F 93% 29.90 in 10.0 mi SSE 12.7 mph - N/A   Partly Cloudy
7:38 AM 71.1 °F - 68.0 °F 90% 29.94 in 10.0 mi SSE 11.5 mph 20.7 mph N/A   Mostly Cloudy
7:54 AM 71.1 °F - 68.0 °F 90% 29.91 in 10.0 mi South 15.0 mph - N/A   Overcast
8:54 AM 73.0 °F - 69.1 °F 87% 29.93 in 10.0 mi South 15.0 mph 23.0 mph N/A   Overcast
9:41 AM 73.9 °F - 70.0 °F 87% 29.95 in 10.0 mi South 16.1 mph 24.2 mph N/A   Overcast
9:54 AM 75.0 °F - 70.0 °F 84% 29.92 in 10.0 mi South 13.8 mph 27.6 mph N/A   Overcast
10:54 AM 77.0 °F - 71.1 °F 82% 29.91 in 10.0 mi South 17.3 mph - N/A   Overcast
11:54 AM 78.1 °F - 71.1 °F 79% 29.93 in 10.0 mi South 19.6 mph 25.3 mph N/A   Mostly Cloudy
12:54 PM 81.0 °F 84.4 °F 70.0 °F 69% 29.91 in 10.0 mi South 18.4 mph 28.8 mph N/A   Scattered Clouds
1:54 PM 84.0 °F 88.4 °F 70.0 °F 63% 29.88 in 10.0 mi South 21.9 mph 31.1 mph N/A   Partly Cloudy
2:54 PM 86.0 °F 91.5 °F 71.1 °F 61% 29.86 in 10.0 mi South 16.1 mph 28.8 mph N/A   Scattered Clouds
3:54 PM 84.9 °F 90.7 °F 72.0 °F 65% 29.84 in 10.0 mi South 21.9 mph 36.8 mph N/A   Mostly Cloudy
4:54 PM 82.9 °F 88.0 °F 72.0 °F 69% 29.85 in 10.0 mi South 20.7 mph 31.1 mph N/A   Mostly Cloudy
5:54 PM 79.0 °F - 73.9 °F 84% 29.86 in 10.0 mi South 16.1 mph 24.2 mph 0.01 in   Scattered Clouds
6:12 PM 77.0 °F - 72.0 °F 84% 29.90 in 10.0 mi South 18.4 mph 36.8 mph N/A Thunderstorm Scattered Clouds
6:26 PM 72.0 °F - 66.0 °F 81% 29.90 in 10.0 mi South 12.7 mph 31.1 mph 0.00 in Rain , Thunderstorm Light Thunderstorms and Rain
6:49 PM 73.4 °F - 68.0 °F 83% 29.89 in 10.0 mi SSE 13.8 mph 23.0 mph 0.00 in Thunderstorm Partly Cloudy
6:54 PM 73.9 °F - 70.0 °F 87% 29.86 in 10.0 mi SSE 15.0 mph - 0.00 in Thunderstorm Partly Cloudy
7:25 PM 73.9 °F - 69.1 °F 85% 29.90 in 8.0 mi SE 10.4 mph 18.4 mph 0.01 in Rain Light Rain
7:54 PM 75.9 °F - 73.0 °F 91% 29.85 in 10.0 mi SSE 11.5 mph - 0.01 in   Partly Cloudy
8:54 PM 77.0 °F - 72.0 °F 84% 29.85 in 10.0 mi SSE 15.0 mph - N/A   Scattered Clouds
9:54 PM 77.0 °F - 71.1 °F 82% 29.86 in 10.0 mi SSE 10.4 mph - N/A   Overcast
10:54 PM 77.0 °F - 70.0 °F 79% 29.86 in 10.0 mi South 15.0 mph 26.5 mph N/A   Mostly Cloudy
11:54 PM 77.0 °F - 70.0 °F 79% 29.85 in 10.0 mi South 19.6 mph 35.7 mph N/A   Clear